SCP
0 0 0 0 0 0 0 0 0 0 0 0 1 1 2 2 2 1 1 1 2 3 4 5 7 9 10 10 9 8 8 7 7 7 6 6 5 5 4 4 3 3 3 3
0 0 0 0 0 0 0 0 0 0 0 0 1 1 2 2 2 2 2 2 3 4 5 6 7 9 10 9 8 8 9 8 8 7 7 7 6 6 5 4 4 3 4 4
0 0 0 0 0 0 0 0 0 0 0 0 1 1 1 2 3 2 2 3 3 4 6 7 7 8 8 7 7 7 9 10 9 8 8 8 8 7 7 6 5 5 4 4
0 0 0 0 0 0 0 0 0 0 0 0 0 1 1 2 2 2 3 3 4 5 7 8 7 7 7 7 6 6 8 11 11 11 11 10 10 9 8 8 7 6 5 5
0 0 0 0 0 0 0 0 0 0 0 0 0 0 1 1 2 3 3 3 5 7 9 9 9 8 8 7 6 5 7 10 13 15 15 13 11 10 9 8 7 7 7 6
0 0 0 0 0 0 0 0 0 0 0 0 0 0 1 1 2 3 4 5 6 9 11 11 10 9 8 7 7 6 6 8 12 16 17 15 13 11 9 8 7 7 8 8
0 0 0 0 0 0 0 0 0 0 0 0 0 1 1 2 3 4 5 7 8 10 11 12 11 10 9 9 8 7 6 6 9 13 15 15 13 11 10 8 7 7 7 8
0 0 0 0 0 0 0 0 0 0 0 0 1 1 2 2 3 5 7 9 11 11 11 12 12 11 10 10 9 8 7 6 6 9 11 12 12 11 10 8 7 7 7 6
0 0 0 0 0 0 0 0 0 0 0 0 1 2 3 3 4 6 8 11 13 12 11 11 11 10 10 10 10 10 8 6 5 6 8 9 10 9 9 8 8 7 6 5
0 0 0 0 0 0 0 0 0 0 0 0 1 2 3 4 4 5 7 10 12 11 10 10 9 8 8 9 10 10 9 6 5 5 5 5 6 6 7 6 6 6 6 5
0 0 0 0 0 0 0 0 0 0 0 0 1 2 3 4 4 5 6 9 11 10 11 11 10 8 8 9 9 8 7 6 6 5 4 4 4 4 4 5 5 5 5 5
0 0 0 0 0 0 0 0 0 0 0 0 1 2 3 3 4 5 6 8 9 9 11 13 12 10 9 8 7 6 7 7 6 5 4 4 3 3 3 3 4 4 4 4
0 0 0 0 0 0 0 0 0 0 0 0 1 2 3 4 5 7 7 8 8 8 11 14 14 12 11 9 8 7 8 8 7 6 5 5 4 4 3 3 3 3 4 4
0 0 0 0 0 0 1 1 1 0 0 1 2 3 4 4 5 7 8 8 8 7 9 14 15 14 13 11 10 9 9 9 8 6 5 5 4 4 4 4 4 4 4 4
0 0 0 0 0 0 1 1 1 1 1 1 3 3 4 4 5 6 6 6 6 6 7 10 15 15 14 12 11 12 11 8 7 6 5 5 5 5 5 4 4 5 4 4
0 0 0 0 0 0 0 1 1 1 1 2 3 3 3 3 4 5 5 4 4 4 5 7 11 15 15 13 13 14 13 9 6 5 5 5 5 5 5 5 5 5 5 4
0 0 0 0 0 0 0 0 0 1 1 2 2 2 1 2 3 4 4 3 3 4 4 4 6 11 14 13 14 16 14 9 6 5 5 5 5 5 5 5 5 5 5 4
0 1 0 0 0 0 0 0 0 1 1 1 2 2 2 3 4 4 4 3 3 3 3 3 4 6 10 12 14 17 15 9 5 4 4 4 4 4 4 5 5 5 4 3
0 0 1 0 0 0 0 0 0 0 1 1 1 2 3 4 5 4 4 4 3 3 3 3 3 4 7 10 13 16 14 9 5 4 3 3 4 4 4 4 4 4 3 2
0 0 0 0 0 0 0 0 0 1 1 1 1 2 3 4 4 3 3 3 3 3 4 5 5 5 6 8 11 13 12 8 6 5 4 3 3 3 3 3 3 3 3 3
0 0 0 0 0 0 0 1 1 1 1 1 1 1 2 2 2 2 3 3 4 5 7 7 7 6 7 8 10 10 9 7 7 6 5 4 3 3 3 2 3 3 3 4
0 0 0 0 0 0 0 1 1 1 1 1 1 1 2 2 2 3 3 4 5 6 7 8 10 11 11 11 10 8 7 7 7 7 5 4 3 3 2 2 2 2 3 3
0 0 0 0 0 0 0 0 0 0 1 1 1 2 2 1 2 3 4 4 5 5 6 9 16 19 17 15 12 8 6 6 6 6 5 4 3 3 2 1 1 1 2 2
0 0 0 0 0 0 0 0 0 0 1 1 2 2 2 1 1 3 3 3 3 3 4 10 20 24 21 16 12 8 6 5 5 5 5 4 4 3 2 1 1 1 2 2
0 0 0 0 0 0 0 0 0 0 0 1 2 2 1 1 1 2 2 2 2 3 4 8 16 18 15 12 9 7 6 5 5 5 5 5 4 3 2 1 1 1 1 2
0 0 0 0 0 0 0 0 0 0 0 1 2 2 1 1 1 2 2 2 2 3 4 6 9 10 9 7 6 5 6 5 5 5 5 5 4 3 2 1 1 1 1 2
Wind_Speed
3 3 5 9 9 7 5 5 7 9 6 2 4 6 7 6 6 8 7 7 8 9 7 7 8 9 9 8 8 7 7 5 4 4 4 4 3 2 2 2 3 3 3 3
1 6 11 8 6 6 7 8 8 8 6 2 3 5 6 6 7 9 10 9 9 8 7 7 8 8 9 9 9 8 8 7 5 4 4 3 3 2 2 2 2 3 3 3
8 8 7 7 8 7 8 8 8 8 6 3 0 4 3 3 3 4 6 8 9 11 11 10 9 8 9 9 10 9 8 7 5 4 3 3 2 2 1 1 1 2 3 3
7 9 7 7 8 7 8 8 8 7 3 4 2 3 6 4 3 5 6 6 7 9 10 10 10 10 10 10 9 9 9 8 6 6 5 5 4 3 3 3 2 2 3 3
7 6 7 9 11 8 9 7 5 5 3 3 2 2 6 3 4 6 7 8 7 9 10 11 11 11 10 9 9 9 8 7 7 7 7 6 4 3 2 2 3 2 2 3
9 6 6 8 8 7 5 1 3 2 3 3 5 4 6 4 8 7 7 7 8 9 9 9 9 9 8 8 8 8 8 7 7 7 6 7 6 5 4 4 4 2 1 1
6 7 5 3 2 3 1 4 3 4 2 6 3 3 6 6 7 8 9 8 8 8 8 8 9 9 9 9 8 8 8 6 7 7 6 7 7 6 6 5 5 4 2 2
3 6 5 3 6 5 4 8 7 5 5 5 2 3 5 4 2 3 6 7 7 7 7 7 8 9 9 9 9 8 8 7 6 7 6 5 6 4 4 5 4 5 4 3
4 6 4 3 4 6 3 4 7 6 2 2 3 3 3 3 3 3 3 5 5 7 8 7 7 8 8 9 9 9 9 7 6 6 5 5 5 5 5 4 4 3 3 3
5 3 5 4 1 1 6 5 5 4 3 4 3 3 3 2 1 1 3 4 3 5 6 6 6 7 7 7 7 7 8 7 6 6 6 5 4 4 4 4 4 4 3 3
3 2 5 3 1 3 1 2 4 3 5 5 3 5 4 5 5 5 4 4 5 4 4 5 5 6 6 5 6 6 6 6 5 6 5 5 4 4 4 4 5 4 3 4
1 4 2 5 5 3 4 4 6 4 3 4 3 7 3 3 3 4 3 3 4 5 4 4 4 4 4 5 5 6 6 6 5 5 5 5 4 4 4 4 4 4 4 4
2 4 2 6 6 4 1 1 3 4 4 4 4 6 2 1 1 2 3 2 3 4 4 3 3 4 4 4 4 5 5 5 4 4 5 4 4 5 5 4 4 4 4 3
3 4 5 6 5 2 2 3 0 3 3 4 6 5 4 3 1 1 1 2 4 4 4 4 3 3 3 3 4 5 5 4 4 4 4 4 5 5 4 4 4 4 4 4
5 2 2 4 4 2 3 4 2 2 5 6 6 6 7 6 5 4 2 3 5 4 3 4 4 3 3 3 3 4 3 4 5 5 4 4 4 3 3 3 3 3 4 4
4 2 0 3 3 3 3 4 3 4 2 2 3 4 4 4 3 3 4 5 4 3 2 2 3 4 4 3 4 4 3 3 4 4 4 3 3 3 3 3 3 3 2 3
1 2 2 2 4 4 3 2 1 1 1 2 3 4 2 3 5 5 5 4 3 3 3 2 2 2 3 3 3 4 3 3 4 4 3 3 3 3 3 3 3 3 2 3
4 3 2 1 2 4 5 2 1 3 2 1 1 1 3 4 3 3 4 5 4 3 2 2 1 1 1 2 2 3 3 3 3 3 3 3 3 3 3 3 3 2 2 3
5 6 3 2 1 4 3 1 1 1 2 2 2 1 1 3 4 2 2 4 4 3 3 2 1 1 1 2 2 3 3 3 3 3 3 3 3 3 3 3 3 3 2 2
3 4 4 3 3 5 4 3 2 2 1 2 2 3 1 2 1 3 1 2 2 2 2 2 1 1 2 2 3 3 3 3 2 2 2 2 3 4 4 3 3 2 2 2
2 1 2 3 3 4 4 5 3 2 4 2 0 2 2 1 4 3 3 2 2 2 2 1 2 2 1 2 3 2 2 2 3 2 2 2 2 3 3 2 2 2 2 2
2 2 2 3 3 6 3 2 1 3 2 2 0 0 1 1 1 1 3 3 3 2 1 2 3 2 1 2 3 2 2 1 1 2 2 2 1 2 2 2 2 2 2 2
1 3 3 4 5 4 1 2 2 2 1 1 0 1 2 2 1 1 1 2 3 3 2 2 3 2 1 1 2 2 2 1 2 2 2 1 1 1 1 2 2 2 2 2
2 1 1 1 2 1 1 1 1 3 2 1 1 1 2 1 1 1 1 1 2 2 2 2 3 3 2 2 2 2 2 2 2 2 1 1 1 1 0 1 2 2 2 3
3 2 1 1 2 2 2 1 1 2 3 2 2 1 1 2 1 1 2 2 2 2 2 3 3 3 3 2 2 2 2 3 2 2 1 1 1 1 1 0 1 2 3 4
2 3 3 4 4 2 3 2 1 2 1 0 1 2 1 1 2 1 1 2 2 2 2 2 2 3 3 2 2 2 2 3 3 3 2 1 1 1 1 1 1 2 1 2
Wind_Direction
213 132 220 226 210 208 233 264 271 272 277 246 229 228 218 202 178 181 183 171 162 166 165 158 156 153 143 141 145 152 148 155 147 145 149 152 157 166 164 167 159 152 151 151
5 239 231 230 235 228 242 262 272 285 281 247 242 246 219 198 189 185 182 178 171 160 156 157 156 154 152 155 155 156 159 163 163 165 165 161 153 160 166 164 161 158 156 160
206 237 227 226 242 245 249 237 247 256 290 303 290 308 272 236 199 185 179 177 176 169 166 167 162 160 158 161 167 166 169 168 172 163 137 119 104 95 107 158 179 184 166 164
234 245 242 233 241 229 250 243 239 245 260 274 176 246 267 234 212 197 197 186 184 177 168 166 167 166 170 174 170 167 168 167 175 165 156 156 158 170 188 186 186 190 178 172
241 233 227 232 236 227 237 244 242 245 234 277 298 184 268 231 212 215 204 195 190 183 174 171 173 174 174 170 168 167 165 171 177 172 171 167 172 184 177 167 167 179 181 177
244 251 223 224 236 229 226 298 334 16 82 262 241 181 260 225 210 212 205 191 186 181 174 173 169 167 168 165 163 163 167 177 176 171 170 172 176 175 164 173 179 185 187 187
282 281 269 231 251 294 123 95 24 349 352 249 238 179 243 247 216 195 193 187 174 169 163 161 161 165 167 165 168 168 168 180 178 174 178 182 183 180 180 183 186 182 181 191
229 275 257 217 188 206 202 148 160 198 226 266 307 207 251 266 208 174 169 166 162 159 159 158 159 159 162 165 167 167 170 179 181 180 183 183 181 178 180 181 179 184 190 197
195 251 272 240 198 162 181 189 175 155 218 250 265 266 300 355 48 67 110 143 162 161 156 155 156 156 159 165 171 172 170 172 178 180 175 174 178 174 175 175 174 182 189 190
174 249 285 279 83 186 167 160 100 124 175 241 258 239 224 222 208 80 94 134 151 149 151 152 154 155 164 172 172 169 168 172 176 177 177 175 177 174 167 162 172 182 185 183
148 178 302 341 176 215 167 133 129 142 166 171 231 258 218 199 186 171 170 149 146 145 146 157 159 162 161 157 159 165 165 162 170 176 174 170 171 170 167 170 182 185 183 183
141 131 253 268 262 202 172 174 145 157 225 175 185 256 269 187 164 151 143 130 136 147 151 148 155 151 148 153 158 161 159 163 176 173 163 164 163 164 175 183 189 186 188 190
125 108 39 340 340 5 50 133 146 147 144 167 181 252 308 22 88 103 99 106 127 143 143 125 124 151 155 154 157 161 161 168 167 160 160 161 161 174 186 192 195 188 187 188
109 116 159 198 227 262 297 308 117 132 168 212 211 217 268 277 213 87 94 136 136 128 145 144 140 137 150 155 153 157 162 160 159 159 163 173 181 186 189 191 189 187 186 182
85 140 210 234 252 266 292 309 309 225 200 198 215 202 221 224 197 179 154 135 128 123 126 147 153 149 143 147 154 153 158 158 159 159 174 187 186 171 165 172 182 179 183 183
61 126 349 312 301 301 311 312 294 275 261 209 191 248 214 184 147 125 122 121 128 132 127 122 139 141 151 159 165 153 156 158 154 161 176 184 173 162 166 174 167 159 167 169
75 96 69 289 315 345 290 273 230 236 297 157 213 247 162 136 140 144 135 127 145 149 120 109 108 129 146 158 161 160 157 141 143 157 165 173 170 169 177 175 156 169 184 173
149 122 131 230 5 241 243 261 132 104 29 23 141 180 163 160 149 131 133 133 131 118 124 139 162 132 141 136 136 140 136 142 149 161 175 177 172 175 183 176 166 178 198 188
158 147 138 135 212 270 280 295 53 94 331 356 91 104 116 125 82 45 98 126 138 145 151 155 176 191 146 144 149 148 145 147 153 161 181 186 180 174 175 182 179 184 192 198
108 120 131 151 189 230 249 308 309 113 236 346 85 129 129 102 132 239 186 119 106 101 123 134 132 118 129 153 141 136 146 147 169 173 180 182 178 179 186 195 195 193 188 203
76 80 150 176 214 258 284 312 2 138 233 292 288 163 156 191 205 199 163 145 137 133 135 132 132 127 156 164 130 131 154 176 189 168 152 141 166 178 189 197 185 186 190 185
157 156 186 167 195 250 309 20 96 217 234 220 272 340 129 147 144 145 150 156 148 155 176 152 143 148 168 149 132 144 189 201 159 144 142 141 151 175 176 178 180 177 175 171
160 187 185 186 211 246 264 159 196 158 135 254 229 162 132 136 142 138 167 176 168 173 198 186 159 155 155 148 139 167 226 165 132 126 136 143 146 174 172 175 176 175 174 174
307 352 135 219 269 277 357 59 77 99 92 18 311 162 145 153 181 162 154 175 168 168 191 187 164 160 175 191 173 201 210 151 136 145 149 143 146 162 195 189 186 187 192 186
273 318 325 251 271 12 4 16 73 67 72 41 358 61 159 167 193 193 170 183 192 201 202 190 171 176 199 197 207 213 183 158 149 159 170 167 165 158 151 167 227 214 218 203
240 197 190 229 227 198 261 282 7 56 51 4 14 16 12 144 186 202 202 211 198 197 189 188 184 189 210 203 217 224 203 175 164 169 177 183 188 182 170 168 309 330 277 247